Погода в Доброполье

Украина / Донецкая область     48°28′07″N   37°04′58″E
темп.,
°C
ветер,
м/с
пор.,
м/с
влажн.,
%
обл.,
%
осадки,
мм/ч
давл.,
гПа
погр.,
м
22 апреля, чт
чт2200:00+8ююз36805 0.0 1018103
03:00+7юз369314 0.1 1019125
06:00+7ююз358958 0.0 1020138
09:00+12юз45665 0.0 1021570
12:00+15юз44496 0.5 10211727
15:00+16юз3443100 1.1 10202223
18:00+13юз466295 1.0 1021226
21:00+11ююз377791 1.1 1022143
23 апреля, пт
пт2300:00+9ююз358612 0.0 102189
03:00+8ююз479351 0.0 1021140
06:00+7ююз48935 0.1 1021162
09:00+12ююз576629 0.1 1021609
12:00+16юз68475 0.0 10191782
15:00+17юз784161 0.0 10172447
18:00+15ююз61154100 0.0 1016616
21:00+12ююз61267100 0.1 1017748
24 апреля, сб
сб2400:00+10зюз5982100 0.6 1016627
03:00+8зсз6988100 1.5 1016710
06:00+6зсз47855 0.0 1017465
09:00+9з56655 0.0 10171036
12:00+11з8114944 0.3 10172017
15:00+12з81240100 0.4 10162759
18:00+9зсз9116577 0.2 10181281
21:00+5зсз410650 0.2 1020514
25 апреля, вс
вс2500:00+3з36710 0.0 1022135
03:00+2з34690 0.0 102262
06:00+2з35720 0.0 1022116
09:00+7з345029 0.0 10221098
12:00+10з44365 0.0 10222007
15:00+11з333365 0.0 10202204
18:00+11зюз123539 0.0 10191987
21:00+7ююв334788 0.0 101923
26 апреля, пн
пн2600:00+6ююз345454 0.0 101945
03:00+5ююз3464100 0.0 101876
06:00+4ююз3672100 0.0 1018142
09:00+9юз4657100 0.0 1017618
12:00+11зюз7951100 0.1 10161922
15:00+8з81082100 0.3 1016940
18:00+6з577995 0.1 1016750
21:00+4з23895 0.1 101759